Montgomery, AL

2:46 PM CDT on October 20, 2017 (GMT -0500)
Montgomery Regional

Weather History for KMGM - June, 2013

Change the Weather History Date:

Saturday, June 15, 2013

  Actual Average Record
Temperature  
Mean Temperature 81 °F 79 °F  
Max Temperature 92 °F 90 °F 100 °F (1963)
Min Temperature 69 °F 68 °F 54 °F (1995)
Cooling Degree Days 16 14  
Month to date cooling degree days 240 192  
Year to date cooling degree days 599 531  
Since 1 June cooling degree days 240 192  
Growing Degree Days 30 (Base 50)    
Moisture  
Dew Point 64 °F    
Average Humidity 60    
Maximum Humidity 79    
Minimum Humidity 41    
Precipitation  
Precipitation 0.00 in 0.12 in 2.79 in (1921)
Month to date precipitation 2.28 1.77  
Year to date precipitation 27.99 25.21  
Sea Level Pressure  
Sea Level Pressure 30.02 in    
Wind  
Wind Speed 6 mph (East)    
Max Wind Speed 14 mph    
Max Gust Speed 18 mph    
Visibility 10 miles    
Events      
T = Trace of Precipitation, MM = Missing Value Source: NWS Daily Summary

Daily Weather History Graph

Daily Weather History Graph

Search for Another Location

Airport or City:

Trip Planner

Search our weather history database for the weather conditions in past years. The results will help you decide how hot, cold, wet, or windy it might be!

Date:

Astronomy

Jun. 15, 2013 Rise Set
Actual Time 5:38 AM CDT 7:54 PM CDT
Civil Twilight 5:09 AM CDT 8:22 PM CDT
Nautical Twilight 4:35 AM CDT 8:57 PM CDT
Astronomical Twilight 3:57 AM CDT 9:34 PM CDT
Moon 11:52 AM CDT (6/15) No Moon Set
Length of Visible Light 15h 12m
Length of Day
14h 15m
Waxing Crescent, 40% of the Moon is Illuminated
Jun 15
Waxing Crescent
Jun 16
First Quarter
Jun 23
Full
Jun 29
Last Quarter
Jul 8
New

Hourly Weather History & Observations

Time (CDT) Temp. Heat Index Dew Point Humidity Pressure Visibility Wind Dir Wind Speed Gust Speed Precip Events Conditions
12:53 AM 72.0 °F - 63.0 °F 73% 29.98 in 10.0 mi Calm Calm - N/A   Clear
1:53 AM 72.0 °F - 63.0 °F 73% 29.97 in 10.0 mi Calm Calm - N/A   Clear
2:53 AM 70.0 °F - 63.0 °F 78% 29.97 in 10.0 mi Calm Calm - N/A   Clear
3:53 AM 70.0 °F - 63.0 °F 78% 29.98 in 10.0 mi NE 4.6 mph - N/A   Clear
4:53 AM 70.0 °F - 63.0 °F 78% 29.99 in 10.0 mi Calm Calm - N/A   Partly Cloudy
5:53 AM 69.1 °F - 63.0 °F 81% 30.01 in 10.0 mi ENE 3.5 mph - N/A   Clear
6:53 AM 73.0 °F - 63.0 °F 71% 30.04 in 10.0 mi NE 4.6 mph - N/A   Mostly Cloudy
7:53 AM 75.9 °F - 64.9 °F 69% 30.04 in 10.0 mi ESE 6.9 mph - N/A   Clear
8:53 AM 81.0 °F 83.0 °F 66.0 °F 60% 30.05 in 10.0 mi ESE 10.4 mph - N/A   Clear
9:53 AM 84.9 °F 86.6 °F 64.9 °F 51% 30.06 in 10.0 mi ESE 10.4 mph - N/A   Clear
10:53 AM 88.0 °F 89.6 °F 64.9 °F 46% 30.06 in 10.0 mi SE 10.4 mph - N/A   Clear
11:53 AM 90.0 °F 92.4 °F 66.0 °F 45% 30.05 in 10.0 mi SE 8.1 mph - N/A   Clear
12:53 PM 90.0 °F 91.7 °F 64.9 °F 43% 30.04 in 10.0 mi SE 10.4 mph 16.1 mph N/A   Mostly Cloudy
1:53 PM 90.0 °F 90.6 °F 63.0 °F 40% 30.04 in 10.0 mi East 6.9 mph - N/A   Mostly Cloudy
2:53 PM 91.0 °F 92.6 °F 64.0 °F 41% 30.02 in 10.0 mi East 4.6 mph - N/A   Partly Cloudy
3:53 PM 89.1 °F 90.3 °F 64.0 °F 43% 30.02 in 10.0 mi ESE 5.8 mph - N/A   Mostly Cloudy
4:53 PM 88.0 °F 89.3 °F 64.0 °F 45% 30.01 in 10.0 mi East 5.8 mph - N/A   Partly Cloudy
5:53 PM 89.1 °F 91.0 °F 64.9 °F 45% 30.00 in 10.0 mi East 10.4 mph - N/A   Clear
6:53 PM 87.1 °F 88.9 °F 64.9 °F 48% 30.00 in 10.0 mi East 9.2 mph - N/A   Clear
7:53 PM 82.0 °F 83.8 °F 64.9 °F 56% 30.00 in 10.0 mi East 6.9 mph - N/A   Clear
8:53 PM 79.0 °F - 66.0 °F 64% 30.02 in 10.0 mi ESE 5.8 mph - N/A   Clear
9:53 PM 77.0 °F - 66.0 °F 69% 30.05 in 10.0 mi East 4.6 mph - N/A   Clear
10:53 PM 75.0 °F - 66.9 °F 76% 30.06 in 10.0 mi East 3.5 mph - N/A   Clear
11:53 PM 73.9 °F - 66.9 °F 79% 30.06 in 10.0 mi East 4.6 mph - N/A   Mostly Cloudy